sat.trackr.live / text

‹ back to catalog

TRANSPORTER-11 OBJECT AU

NORAD 60510 · 2024-149AU

PAYLOAD ACTIVE UNKNOWN

§ Identity

Operator
Country
TBD
Launch date
2024-08-16
Launch site
AFWTR
Launch vehicle
Mass (kg)
RCS (m²)

External: N2YO · Heavens-Above · Gunter

§ Orbital elements

Epoch: 2026-05-25T04:25:07.212000Z

Period
93.54 min
Inclination
97.3730°
Eccentricity
0.0003832
Mean motion
15.39486163 rev/d
Perigee alt
445.0 km
Apogee alt
450.2 km
Semi-major
6,825.8 km
B*
3.7542e-4
RAAN
228.7335°
Arg perigee
36.0816°
Mean anomaly
324.0688°
Rev number
9,877

§ Raw data

TRANSPORTER-11 OBJECT AU1 60510U 24149AU  26145.18411125  .00014658  00000+0  37542-3 0  99902 60510  97.3730 228.7335 0003832  36.0816 324.0688 15.39486163 98771

JSON: /api/v1/satellites/60510 · /tle

For live sub-satellite position, see the globe view (requires WebGL).

§ Visibility from observer

Set your observer location to see the next 7 days of passes ≥ 10°. The values pass through the URL so the page stays shareable.

No JS? Fill the form by hand. The geolocation button needs JavaScript.